Regional Weather Roundup
Issued by NWS

Home | Current Version | Previous Version | Text Only | Print | Product List | Glossary On
Versions: 1 2 3 4 5 6 7 8 9 10 11 12 13 14 15 16 17 18 19 20 21 22 23 24 25 26 27 28 29 30 31 32 33 34 35 36 37 38 39 40 41 42 43 44 45 46 47 48 49 50
000
ASUS45 KBOI 280910
RWRID

IDAHO REGIONAL WEATHER ROUNDUP
NATIONAL WEATHER SERVICE BOISE ID
300 AM MDT WED SEP 28 2016

NOTE: "FAIR" INDICATES FEW OR NO CLOUDS BELOW 12000 FEET
WITH NO SIGNIFICANT WEATHER AND/OR OBSTRUCTIONS TO VISIBILITY

IDZ012-014-281000-
SOUTHWEST IDAHO


CITY           SKY/WX    TMP DP  RH WIND       PRES   REMARKS
BOISE          CLEAR     63  39  41 E10       30.02S
CALDWELL       CLEAR     52  46  80 E3        30.01S
MOUNTAIN HOME  CLEAR     56  41  57 E7        30.04R
$$

IDZ016-017-281000-
SOUTHCENTRAL IDAHO


CITY           SKY/WX    TMP DP  RH WIND       PRES   REMARKS
BURLEY         CLEAR     48  45  89 W5        30.11R
JEROME         CLEAR     56  46  69 NE15      30.10S
TWIN FALLS     CLEAR     50  42  74 SE5       30.10S
$$

IDZ019>023-281000-
SOUTHEAST IDAHO


CITY           SKY/WX    TMP DP  RH WIND       PRES   REMARKS
IDAHO FALLS    CLEAR     44  40  85 N5        30.19S
POCATELLO      CLEAR     48  44  86 CALM      30.17S
REXBURG        CLEAR     45  42  89 NE5       30.21R
$$

IDZ006-010-011-018-031-032-281000-
CENTRAL IDAHO MOUNTAINS


CITY           SKY/WX    TMP DP  RH WIND       PRES   REMARKS
MCCALL         CLEAR     46  37  71 NE5       30.16S
HAILEY         CLEAR     52  39  62 NW10      30.23S
STANLEY          N/A     37  32  82 CALM      30.29S
SALMON         CLEAR     45  37  76 CALM      30.17R
CHALLIS        CLEAR     49  34  56 CALM      30.21R
$$

IDZ002-004-006-007-026-281000-
NORTHERN IDAHO


CITY           SKY/WX    TMP DP  RH WIND       PRES   REMARKS
LEWISTON       CLEAR     62  46  55 SW3       30.00S
LOWELL           N/A     53  50  89 CALM      30.08R
COEUR D`ALENE  CLEAR     55  45  68 E8        30.06F
MULLAN PASS    CLEAR     56  42  59 SE5       30.21S
$$



USA.gov is the U.S. government's official web portal to all federal, state and local government web resources and services.